AXY27 LKPR-EDDH

Flight info

Callsign AXY27
Flight time 0h 48m
Altitude 36000
Route VENOX4B/30 VENOX DCT DEKOV Y621 ESLOR M748 RARUP RARUP6A
Aircraft A343/H-SDE2E3FGHIJ4J5M1RWXY/LB1D1

Departure

Time 2026-05-07 18:16
Airport Václav Havel Airport Prague (LKPR)

Arrival

Time 2026-05-07 19:04
Airport Hamburg Helmut Schmidt Airport (EDDH)
Time Latitude Longitude Altitude Speed Heading
2026-05-07 17:48 50.10621 14.26197 1176 ft 0 kts 34°
2026-05-07 18:03 50.10617 14.26192 1175 ft 4 kts 34°
2026-05-07 18:03 50.10595 14.26168 1175 ft 4 kts 33°
2026-05-07 18:04 50.10572 14.26148 1175 ft 4 kts
2026-05-07 18:04 50.10555 14.26154 1175 ft 3 kts 304°
2026-05-07 18:04 50.10542 14.26190 1175 ft 4 kts 285°
2026-05-07 18:04 50.10540 14.26201 1176 ft 2 kts 282°
2026-05-07 18:05 50.10539 14.26162 1176 ft 4 kts 263°
2026-05-07 18:05 50.10534 14.26120 1181 ft 4 kts 259°
2026-05-07 18:05 50.10532 14.26100 1175 ft 1 kts 259°
2026-05-07 18:09 50.10532 14.26097 1183 ft 2 kts 259°
2026-05-07 18:09 50.10528 14.26062 1185 ft 4 kts 261°
2026-05-07 18:09 50.10517 14.26023 1185 ft 4 kts 231°
2026-05-07 18:10 50.10482 14.26008 1189 ft 9 kts 171°
2026-05-07 18:10 50.10437 14.26100 1190 ft 13 kts 124°
2026-05-07 18:10 50.10388 14.26207 1192 ft 12 kts 126°
2026-05-07 18:10 50.10336 14.26315 1194 ft 14 kts 127°
2026-05-07 18:11 50.10274 14.26443 1197 ft 16 kts 127°
2026-05-07 18:11 50.10229 14.26535 1199 ft 17 kts 127°
2026-05-07 18:11 50.10131 14.26739 1202 ft 17 kts 126°
2026-05-07 18:11 50.10064 14.26881 1205 ft 15 kts 127°
2026-05-07 18:12 50.10003 14.27006 1208 ft 14 kts 127°
2026-05-07 18:12 50.09944 14.27130 1210 ft 16 kts 127°
2026-05-07 18:12 50.09864 14.27293 1208 ft 21 kts 129°
2026-05-07 18:12 50.09749 14.27477 1210 ft 26 kts 136°
2026-05-07 18:13 50.09617 14.27677 1212 ft 26 kts 135°
2026-05-07 18:13 50.09535 14.27803 1215 ft 24 kts 135°
2026-05-07 18:13 50.09388 14.28030 1223 ft 20 kts 134°
2026-05-07 18:13 50.09297 14.28173 1228 ft 17 kts 135°
2026-05-07 18:14 50.09243 14.28256 1230 ft 14 kts 135°
2026-05-07 18:14 50.09177 14.28298 1244 ft 4 kts 189°
2026-05-07 18:14 50.09158 14.28282 1252 ft 6 kts 210°
2026-05-07 18:14 50.09103 14.28216 1252 ft 11 kts 222°
2026-05-07 18:15 50.09091 14.28096 1245 ft 13 kts 284°
2026-05-07 18:15 50.09140 14.27976 1249 ft 15 kts 306°
2026-05-07 18:15 50.09293 14.27659 1232 ft 64 kts 307°
2026-05-07 18:15 50.09672 14.26873 1220 ft 114 kts 307°
2026-05-07 18:16 50.10232 14.25728 1290 ft 146 kts 308°
2026-05-07 18:16 50.10877 14.24448 1738 ft 156 kts 306°
2026-05-07 18:16 50.11536 14.23072 2349 ft 160 kts 308°
2026-05-07 18:16 50.12157 14.21770 2900 ft 161 kts 309°
2026-05-07 18:17 50.12827 14.20366 3501 ft 162 kts 310°
2026-05-07 18:17 50.13504 14.18958 4128 ft 162 kts 307°
2026-05-07 18:17 50.14199 14.17515 4567 ft 176 kts 306°
2026-05-07 18:17 50.14976 14.15897 4867 ft 196 kts 305°
2026-05-07 18:18 50.15827 14.14123 5263 ft 214 kts 306°
2026-05-07 18:18 50.16778 14.12143 5540 ft 240 kts 306°
2026-05-07 18:18 50.17713 14.10198 6149 ft 249 kts 305°
2026-05-07 18:18 50.18764 14.08014 6897 ft 256 kts 305°
2026-05-07 18:19 50.19845 14.06026 7491 ft 265 kts 316°
2026-05-07 18:19 50.21405 14.04435 8220 ft 274 kts 337°
2026-05-07 18:19 50.23305 14.04007 8967 ft 283 kts
2026-05-07 18:19 50.25275 14.04442 9662 ft 290 kts
2026-05-07 18:20 50.27271 14.05033 10332 ft 297 kts 10°
2026-05-07 18:20 50.29355 14.05660 10669 ft 314 kts
2026-05-07 18:20 50.31563 14.06318 10973 ft 331 kts
2026-05-07 18:20 50.33787 14.06977 11258 ft 346 kts
2026-05-07 18:21 50.36196 14.07690 11647 ft 358 kts
2026-05-07 18:21 50.38599 14.08401 12089 ft 368 kts
2026-05-07 18:21 50.41134 14.09150 12678 ft 373 kts
2026-05-07 18:21 50.43698 14.09909 13353 ft 377 kts
2026-05-07 18:22 50.46284 14.10675 13955 ft 382 kts
2026-05-07 18:22 50.48025 14.11189 14336 ft 384 kts
2026-05-07 18:22 50.51427 14.12198 15160 ft 387 kts
2026-05-07 18:22 50.54033 14.12971 15743 ft 391 kts
2026-05-07 18:23 50.56613 14.13736 16342 ft 394 kts
2026-05-07 18:23 50.59326 14.14463 17000 ft 396 kts
2026-05-07 18:23 50.62062 14.15114 17554 ft 400 kts
2026-05-07 18:23 50.64533 14.15673 18108 ft 402 kts
2026-05-07 18:24 50.67123 14.16256 18655 ft 405 kts
2026-05-07 18:24 50.70110 14.16940 19174 ft 409 kts
2026-05-07 18:24 50.72914 14.17596 19674 ft 412 kts
2026-05-07 18:24 50.75200 14.18139 20098 ft 414 kts
2026-05-07 18:25 50.78047 14.18823 20593 ft 418 kts
2026-05-07 18:25 50.80555 14.19429 21061 ft 419 kts
2026-05-07 18:25 50.83341 14.20104 21666 ft 419 kts
2026-05-07 18:25 50.86264 14.20814 22258 ft 419 kts
2026-05-07 18:26 50.89162 14.21299 22776 ft 421 kts
2026-05-07 18:26 50.91900 14.21070 23206 ft 423 kts 351°
2026-05-07 18:26 50.94726 14.19798 23675 ft 425 kts 336°
2026-05-07 18:26 50.97286 14.17436 24010 ft 429 kts 325°
2026-05-07 18:27 50.99474 14.14883 24322 ft 432 kts 323°
2026-05-07 18:27 51.01854 14.11998 24703 ft 434 kts 323°
2026-05-07 18:27 51.04190 14.09152 25024 ft 437 kts 322°
2026-05-07 18:27 51.06468 14.06374 25385 ft 438 kts 322°
2026-05-07 18:28 51.08691 14.03663 25723 ft 440 kts 322°
2026-05-07 18:28 51.11134 14.00681 26095 ft 442 kts 322°
2026-05-07 18:28 51.13578 13.97695 26424 ft 445 kts 322°
2026-05-07 18:28 51.16031 13.94694 26772 ft 446 kts 322°
2026-05-07 18:29 51.18496 13.91674 27097 ft 449 kts 322°
2026-05-07 18:29 51.20976 13.88633 27441 ft 450 kts 322°
2026-05-07 18:29 51.23279 13.85804 27693 ft 453 kts 322°
2026-05-07 18:29 51.25781 13.82727 27972 ft 456 kts 322°
2026-05-07 18:30 51.28297 13.79629 28299 ft 458 kts 322°
2026-05-07 18:30 51.30823 13.76513 28591 ft 460 kts 322°
2026-05-07 18:30 51.33362 13.73377 28884 ft 462 kts 322°
2026-05-07 18:30 51.35890 13.70251 29190 ft 464 kts 322°
2026-05-07 18:31 51.38434 13.67100 29498 ft 466 kts 322°
2026-05-07 18:31 51.41004 13.63912 29762 ft 468 kts 322°
2026-05-07 18:31 51.43001 13.61431 29982 ft 469 kts 322°
2026-05-07 18:31 51.45179 13.58724 30217 ft 470 kts 322°
2026-05-07 18:32 51.47762 13.55506 30513 ft 470 kts 322°
2026-05-07 18:32 51.50322 13.52315 30969 ft 466 kts 322°
2026-05-07 18:32 51.52891 13.49106 31244 ft 466 kts 322°
2026-05-07 18:32 51.55413 13.45952 31499 ft 467 kts 322°
2026-05-07 18:33 51.57980 13.42737 31741 ft 468 kts 322°
2026-05-07 18:33 51.60379 13.39728 31989 ft 468 kts 322°
2026-05-07 18:33 51.62529 13.37029 32193 ft 469 kts 321°
2026-05-07 18:33 51.65096 13.33800 32485 ft 468 kts 321°
2026-05-07 18:34 51.67666 13.30563 32722 ft 469 kts 321°
2026-05-07 18:34 51.70224 13.27337 32939 ft 470 kts 321°
2026-05-07 18:34 51.72783 13.24103 33184 ft 470 kts 321°
2026-05-07 18:34 51.75364 13.20838 33446 ft 470 kts 321°
2026-05-07 18:35 51.77858 13.17680 33789 ft 468 kts 321°
2026-05-07 18:35 51.79973 13.14997 34037 ft 467 kts 321°
2026-05-07 18:35 51.82570 13.11697 34208 ft 469 kts 321°
2026-05-07 18:35 51.85127 13.08443 34382 ft 469 kts 321°
2026-05-07 18:36 51.87676 13.05194 34586 ft 469 kts 321°
2026-05-07 18:36 51.90232 13.01934 34769 ft 469 kts 321°
2026-05-07 18:36 51.92792 12.98662 34955 ft 469 kts 321°
2026-05-07 18:36 51.95354 12.95383 35139 ft 469 kts 320°
2026-05-07 18:37 51.97786 12.92265 35325 ft 469 kts 320°
2026-05-07 18:37 52.00332 12.88997 35496 ft 469 kts 320°
2026-05-07 18:37 52.02894 12.85703 35671 ft 469 kts 320°
2026-05-07 18:37 52.05442 12.82422 35844 ft 469 kts 320°
2026-05-07 18:38 52.07662 12.79560 36025 ft 469 kts 320°
2026-05-07 18:38 52.12797 12.72925 36076 ft 472 kts 320°
2026-05-07 18:39 52.17650 12.66637 36089 ft 470 kts 320°
2026-05-07 18:39 52.22765 12.59988 36088 ft 470 kts 320°
2026-05-07 18:40 52.27837 12.53375 36076 ft 470 kts 320°
2026-05-07 18:40 52.32850 12.46821 36095 ft 470 kts 320°
2026-05-07 18:41 52.37852 12.40261 36084 ft 470 kts 320°
2026-05-07 18:41 52.42890 12.33634 36028 ft 470 kts 320°
2026-05-07 18:41 52.45437 12.30275 35778 ft 469 kts 320°
2026-05-07 18:42 52.47974 12.26925 35535 ft 469 kts 320°
2026-05-07 18:42 52.50513 12.23567 35296 ft 469 kts 320°
2026-05-07 18:42 52.52877 12.20436 35080 ft 469 kts 320°
2026-05-07 18:42 52.55548 12.16892 34828 ft 469 kts 320°
2026-05-07 18:43 52.58051 12.13567 34609 ft 469 kts 320°
2026-05-07 18:43 52.60547 12.10246 34372 ft 468 kts 320°
2026-05-07 18:43 52.63048 12.06913 34150 ft 468 kts 321°
2026-05-07 18:43 52.65608 12.03498 33660 ft 468 kts 320°
2026-05-07 18:44 52.68093 12.00176 33000 ft 468 kts 321°
2026-05-07 18:44 52.70379 11.97117 32360 ft 469 kts 320°
2026-05-07 18:44 52.72905 11.93730 31644 ft 471 kts 320°
2026-05-07 18:44 52.75446 11.90319 30931 ft 473 kts 320°
2026-05-07 18:45 52.77847 11.87090 30193 ft 475 kts 320°
2026-05-07 18:45 52.80445 11.83591 29543 ft 473 kts 320°
2026-05-07 18:45 52.82983 11.80168 29047 ft 468 kts 320°
2026-05-07 18:45 52.85423 11.76872 28529 ft 463 kts 320°
2026-05-07 18:46 52.87873 11.73558 28018 ft 458 kts 320°
2026-05-07 18:46 52.90300 11.70268 27522 ft 454 kts 320°
2026-05-07 18:46 52.92737 11.66961 27000 ft 450 kts 320°
2026-05-07 18:46 52.95145 11.63689 26508 ft 446 kts 320°
2026-05-07 18:47 52.97522 11.60454 26001 ft 442 kts 320°
2026-05-07 18:47 52.99888 11.57227 25495 ft 439 kts 320°
2026-05-07 18:47 53.01963 11.54396 25053 ft 437 kts 320°
2026-05-07 18:47 53.04302 11.51199 24530 ft 435 kts 320°
2026-05-07 18:48 53.06572 11.47940 24326 ft 425 kts 315°
2026-05-07 18:48 53.08519 11.44252 24210 ft 426 kts 306°
2026-05-07 18:48 53.10050 11.40050 23964 ft 425 kts 297°
2026-05-07 18:48 53.11350 11.35694 23699 ft 424 kts 295°
2026-05-07 18:49 53.12622 11.31255 23203 ft 424 kts 295°
2026-05-07 18:49 53.13867 11.26864 22652 ft 421 kts 295°
2026-05-07 18:49 53.15100 11.22496 22107 ft 418 kts 295°
2026-05-07 18:49 53.16335 11.18104 21354 ft 420 kts 295°
2026-05-07 18:50 53.17572 11.13697 20603 ft 418 kts 295°
2026-05-07 18:50 53.18794 11.09330 19876 ft 414 kts 295°
2026-05-07 18:50 53.20005 11.04998 19163 ft 411 kts 295°
2026-05-07 18:50 53.21197 11.00724 18478 ft 408 kts 295°
2026-05-07 18:51 53.22390 10.96440 17709 ft 405 kts 295°
2026-05-07 18:51 53.23568 10.92198 16950 ft 402 kts 295°
2026-05-07 18:51 53.24739 10.87978 16233 ft 398 kts 295°
2026-05-07 18:51 53.25892 10.83812 15549 ft 394 kts 295°
2026-05-07 18:52 53.27034 10.79680 14909 ft 389 kts 294°
2026-05-07 18:52 53.28160 10.75597 14280 ft 385 kts 295°
2026-05-07 18:52 53.29270 10.71564 13635 ft 381 kts 295°
2026-05-07 18:52 53.30364 10.67586 12932 ft 377 kts 295°
2026-05-07 18:53 53.31455 10.63610 12252 ft 374 kts 295°
2026-05-07 18:53 53.32532 10.59677 11588 ft 371 kts 295°
2026-05-07 18:53 53.33587 10.55819 10936 ft 368 kts 295°
2026-05-07 18:53 53.34642 10.51956 10330 ft 364 kts 295°
2026-05-07 18:54 53.35677 10.48155 10219 ft 347 kts 295°
2026-05-07 18:54 53.36668 10.44513 10078 ft 341 kts 295°
2026-05-07 18:54 53.37656 10.40880 9478 ft 343 kts 295°
2026-05-07 18:54 53.38643 10.37241 8925 ft 344 kts 295°
2026-05-07 18:55 53.39616 10.33646 8467 ft 342 kts 295°
2026-05-07 18:55 53.40584 10.30067 8025 ft 339 kts 295°
2026-05-07 18:55 53.41550 10.26488 7593 ft 336 kts 295°
2026-05-07 18:55 53.42277 10.22794 7163 ft 334 kts 282°
2026-05-07 18:56 53.42543 10.18948 6747 ft 331 kts 275°
2026-05-07 18:56 53.42688 10.15160 6347 ft 328 kts 274°
2026-05-07 18:56 53.42822 10.11377 5969 ft 323 kts 274°
2026-05-07 18:56 53.42956 10.07670 5731 ft 313 kts 274°
2026-05-07 18:57 53.43087 10.04137 5429 ft 294 kts 274°
2026-05-07 18:57 53.43216 10.00744 4942 ft 283 kts 274°
2026-05-07 18:57 53.43343 9.97522 4354 ft 278 kts 274°
2026-05-07 18:57 53.43475 9.94306 3727 ft 275 kts 274°
2026-05-07 18:58 53.43609 9.91123 3081 ft 273 kts 275°
2026-05-07 18:58 53.44052 9.88085 2621 ft 265 kts 291°
2026-05-07 18:58 53.44791 9.85327 2510 ft 261 kts 298°
2026-05-07 18:58 53.45343 9.83528 2489 ft 252 kts 298°
2026-05-07 18:59 53.46145 9.80976 2509 ft 242 kts 299°
2026-05-07 18:59 53.47246 9.77840 2475 ft 227 kts 315°
2026-05-07 18:59 53.48044 9.76707 2522 ft 219 kts 328°
2026-05-07 18:59 53.49349 9.75602 2519 ft 204 kts 350°
2026-05-07 19:00 53.50678 9.75719 2483 ft 183 kts 19°
2026-05-07 19:00 53.51775 9.76570 2482 ft 170 kts 39°
2026-05-07 19:00 53.52626 9.77914 2508 ft 167 kts 51°
2026-05-07 19:00 53.53380 9.79386 2508 ft 167 kts 51°
2026-05-07 19:01 53.54138 9.80872 2470 ft 168 kts 52°
2026-05-07 19:01 53.54874 9.82345 2266 ft 166 kts 52°
2026-05-07 19:01 53.55620 9.83850 2035 ft 165 kts 52°
2026-05-07 19:01 53.56354 9.85331 1854 ft 163 kts 52°
2026-05-07 19:02 53.57061 9.86756 1604 ft 152 kts 52°
2026-05-07 19:02 53.57712 9.88066 1404 ft 140 kts 52°
2026-05-07 19:02 53.58321 9.89298 1209 ft 135 kts 52°
2026-05-07 19:02 53.58927 9.90522 1038 ft 136 kts 52°
2026-05-07 19:03 53.59529 9.91739 838 ft 135 kts 51°
2026-05-07 19:03 53.60130 9.92953 660 ft 135 kts 51°
2026-05-07 19:03 53.60731 9.94168 464 ft 134 kts 50°
2026-05-07 19:03 53.61320 9.95369 310 ft 135 kts 50°
2026-05-07 19:04 53.61939 9.96604 103 ft 134 kts 50°
2026-05-07 19:04 53.62492 9.97717 44 ft 98 kts 50°
2026-05-07 19:04 53.62798 9.98338 47 ft 58 kts 50°
2026-05-07 19:04 53.63012 9.98775 49 ft 44 kts 52°
2026-05-07 19:05 53.63184 9.99117 47 ft 31 kts 49°
2026-05-07 19:05 53.63278 9.99341 48 ft 15 kts 74°
2026-05-07 19:05 53.63290 9.99490 51 ft 10 kts 91°
2026-05-07 19:05 53.63282 9.99598 50 ft 9 kts 98°
2026-05-07 19:06 53.63277 9.99652 52 ft 0 kts 99°
2026-05-07 19:06 53.63275 9.99673 52 ft 2 kts 101°
2026-05-07 19:06 53.63273 9.99687 50 ft 2 kts 99°
2026-05-07 19:07 53.63275 9.99725 49 ft 4 kts 79°
2026-05-07 19:07 53.63293 9.99786 49 ft 7 kts 57°
2026-05-07 19:07 53.63321 9.99849 49 ft 7 kts 52°
2026-05-07 19:07 53.63348 9.99902 51 ft 6 kts 50°
2026-05-07 19:08 53.63374 9.99954 50 ft 4 kts 50°
2026-05-07 19:08 53.63395 9.99997 46 ft 5 kts 50°
2026-05-07 19:08 53.63420 10.00049 49 ft 6 kts 52°
2026-05-07 19:08 53.63429 10.00118 50 ft 6 kts 96°
2026-05-07 19:09 53.63407 10.00169 49 ft 5 kts 141°
2026-05-07 19:09 53.63375 10.00189 47 ft 5 kts 162°
2026-05-07 19:09 53.63356 10.00226 51 ft 4 kts 110°
2026-05-07 19:09 53.63356 10.00274 52 ft 5 kts 87°
2026-05-07 19:10 53.63357 10.00331 47 ft 4 kts 88°
2026-05-07 19:10 53.63357 10.00348 47 ft 1 kts 88°
2026-05-07 19:10 53.63358 10.00354 47 ft 0 kts 88°